Time,TemperatureF,DewpointF,PressureIn,WindDirection,WindDirectionDegrees,WindSpeedMPH,WindSpeedGustMPH,Humidity,HourlyPrecipIn,Conditions,Clouds,dailyrainin,SoftwareType,DateUTC
2013-01-23 00:03:00,9.0,7.0,-100.00,South,172,1.0,12.0,86,0.00,,,-99.99,,2013-01-23 05:03:00,
2013-01-23 00:12:00,9.0,7.0,-100.00,SSE,166,0.0,12.0,88,0.00,,,-99.99,,2013-01-23 05:12:00,
2013-01-23 00:23:00,9.0,7.0,-100.00,SSE,162,0.0,12.0,88,0.00,,,-99.99,,2013-01-23 05:23:00,
2013-01-23 00:33:00,9.0,7.0,-100.00,SSE,149,1.0,12.0,88,0.00,,,-99.99,,2013-01-23 05:33:00,
2013-01-23 00:43:00,9.0,7.0,-100.00,SSE,149,1.0,12.0,86,0.00,,,-99.99,,2013-01-23 05:43:00,
2013-01-23 00:52:00,10.0,7.0,-100.00,SSE,162,0.0,12.0,86,0.00,,,-99.99,,2013-01-23 05:52:00,
2013-01-23 01:03:00,11.0,9.0,-100.00,SSE,149,0.0,12.0,86,1.14,,,-99.99,,2013-01-23 06:03:00,
2013-01-23 01:13:00,10.0,9.0,-100.00,SSW,204,0.0,12.0,88,0.00,,,-99.99,,2013-01-23 06:13:00,
2013-01-23 01:23:00,9.0,7.0,-100.00,SSE,163,0.0,12.0,88,0.00,,,-99.99,,2013-01-23 06:23:00,
2013-01-23 01:33:00,11.0,9.0,-100.00,South,175,2.0,12.0,88,1.14,,,-99.99,,2013-01-23 06:33:00,
2013-01-23 01:43:00,11.0,9.0,-100.00,SSW,193,1.0,12.0,88,0.00,,,-99.99,,2013-01-23 06:43:00,
2013-01-23 01:52:00,11.0,9.0,-100.00,SW,225,2.0,12.0,88,0.00,,,-99.99,,2013-01-23 06:52:00,
2013-01-23 02:02:00,11.0,9.0,-100.00,SSE,160,2.0,12.0,88,0.00,,,-99.99,,2013-01-23 07:02:00,
2013-01-23 02:13:00,11.0,9.0,-100.00,SSE,158,3.0,12.0,86,0.00,,,-99.99,,2013-01-23 07:13:00,
2013-01-23 02:23:00,11.0,9.0,-100.00,SSW,208,3.0,12.0,86,0.00,,,-99.99,,2013-01-23 07:23:00,
2013-01-23 02:33:00,11.0,9.0,-100.00,South,183,3.0,12.0,86,1.14,,,-99.99,,2013-01-23 07:33:00,
2013-01-23 02:43:00,11.0,9.0,-100.00,SSW,208,4.0,12.0,86,2.83,,,-99.99,,2013-01-23 07:43:00,
2013-01-23 02:52:00,11.0,9.0,-100.00,South,184,4.0,12.0,86,0.00,,,-99.99,,2013-01-23 07:52:00,
2013-01-23 03:02:00,11.0,9.0,-100.00,SW,217,4.0,12.0,86,0.00,,,-99.99,,2013-01-23 08:02:00,
2013-01-23 03:13:00,11.0,9.0,-100.00,SSW,200,4.0,12.0,86,2.83,,,-99.99,,2013-01-23 08:13:00,
2013-01-23 03:23:00,11.0,9.0,-100.00,WSW,249,1.0,12.0,86,0.00,,,-99.99,,2013-01-23 08:23:00,
2013-01-23 03:33:00,11.0,9.0,-100.00,South,187,2.0,12.0,86,0.00,,,-99.99,,2013-01-23 08:33:00,
2013-01-23 03:43:00,11.0,9.0,-100.00,SW,214,2.0,12.0,85,0.00,,,-99.99,,2013-01-23 08:43:00,
2013-01-23 03:53:00,11.0,9.0,-100.00,SSW,210,3.0,12.0,84,1.14,,,-99.99,,2013-01-23 08:53:00,
2013-01-23 04:03:00,11.0,9.0,-100.00,SW,221,3.0,12.0,85,10.79,,,-99.99,,2013-01-23 09:03:00,
2013-01-23 04:12:00,11.0,9.0,-100.00,SSW,200,6.0,12.0,86,-99.99,,,-99.99,,2013-01-23 09:12:00,
2013-01-23 04:22:00,11.0,9.0,-100.00,SSW,194,6.0,12.0,86,-99.99,,,-99.99,,2013-01-23 09:22:00,
2013-01-23 04:33:00,10.0,9.0,-100.00,SSW,194,5.0,12.0,88,6.22,,,-99.99,,2013-01-23 09:33:00,
2013-01-23 04:43:00,11.0,9.0,-100.00,SSW,194,3.0,12.0,86,0.00,,,-99.99,,2013-01-23 09:43:00,
2013-01-23 04:53:00,11.0,9.0,-100.00,SSW,211,3.0,12.0,86,1.14,,,-99.99,,2013-01-23 09:53:00,
2013-01-23 05:03:00,11.0,9.0,-100.00,SSW,203,4.0,12.0,85,0.00,,,-99.99,,2013-01-23 10:03:00,
2013-01-23 05:12:00,11.0,9.0,-100.00,SSW,213,4.0,12.0,85,12.48,,,-99.99,,2013-01-23 10:12:00,
2013-01-23 05:23:00,11.0,9.0,-100.00,SSW,204,4.0,12.0,85,0.00,,,-99.99,,2013-01-23 10:23:00,
2013-01-23 05:33:00,11.0,9.0,-100.00,SSW,199,6.0,12.0,84,0.00,,,-99.99,,2013-01-23 10:33:00,
2013-01-23 05:43:00,11.0,9.0,-100.00,South,184,4.0,12.0,82,0.00,,,-99.99,,2013-01-23 10:43:00,
2013-01-23 05:52:00,11.0,7.0,-100.00,WSW,258,4.0,12.0,82,26.65,,,-99.99,,2013-01-23 10:52:00,
2013-01-23 06:03:00,11.0,9.0,-100.00,South,190,4.0,12.0,86,4.53,,,-99.99,,2013-01-23 11:03:00,
2013-01-23 06:12:00,12.0,10.0,-100.00,South,187,5.0,12.0,86,1.14,,,-99.99,,2013-01-23 11:12:00,
2013-01-23 06:23:00,10.0,7.0,-100.00,SSW,194,3.0,12.0,85,2.83,,,-99.99,,2013-01-23 11:23:00,
2013-01-23 06:34:00,10.0,7.0,-100.00,SSW,211,4.0,12.0,85,1.14,,,-99.99,,2013-01-23 11:34:00,
2013-01-23 06:43:00,11.0,9.0,-100.00,SSW,199,4.0,12.0,85,6.22,,,-99.99,,2013-01-23 11:43:00,
2013-01-23 06:53:00,11.0,9.0,-100.00,SSW,197,5.0,12.0,85,4.53,,,-99.99,,2013-01-23 11:53:00,
2013-01-23 07:03:00,11.0,9.0,-100.00,SSW,194,4.0,12.0,86,18.70,,,-99.99,,2013-01-23 12:03:00,
2013-01-23 07:13:00,10.0,9.0,-100.00,SSW,207,4.0,12.0,85,1.14,,,-99.99,,2013-01-23 12:13:00,
2013-01-23 07:23:00,11.0,9.0,-100.00,SSW,200,4.0,12.0,85,0.00,,,-99.99,,2013-01-23 12:23:00,
2013-01-23 07:33:00,11.0,9.0,-100.00,SSW,200,4.0,12.0,85,2.83,,,-99.99,,2013-01-23 12:33:00,
2013-01-23 07:43:00,11.0,9.0,-100.00,SSW,204,3.0,12.0,85,9.06,,,-99.99,,2013-01-23 12:43:00,
2013-01-23 07:53:00,11.0,9.0,-100.00,South,187,4.0,12.0,85,0.00,,,-99.99,,2013-01-23 12:53:00,
2013-01-23 08:04:00,10.0,7.0,-100.00,SSW,213,4.0,12.0,84,1.14,,,-99.99,,2013-01-23 13:04:00,
2013-01-23 08:13:00,11.0,9.0,-100.00,SSW,196,4.0,12.0,84,6.22,,,-99.99,,2013-01-23 13:13:00,
2013-01-23 08:23:00,11.0,9.0,-100.00,SW,217,1.0,12.0,85,-99.99,,,-99.99,,2013-01-23 13:23:00,
2013-01-23 08:33:00,11.0,9.0,-100.00,SW,224,0.0,12.0,86,15.31,,,-99.99,,2013-01-23 13:33:00,
2013-01-23 08:43:00,11.0,9.0,-100.00,SW,221,0.0,12.0,86,6.22,,,-99.99,,2013-01-23 13:43:00,
2013-01-23 08:53:00,11.0,9.0,-100.00,SSW,199,0.0,12.0,86,1.14,,,-99.99,,2013-01-23 13:53:00,
2013-01-23 09:03:00,11.0,9.0,-100.00,South,184,1.0,12.0,86,2.83,,,-99.99,,2013-01-23 14:03:00,
2013-01-23 09:12:00,11.0,9.0,-100.00,WSW,247,1.0,12.0,86,2.83,,,-99.99,,2013-01-23 14:12:00,
2013-01-23 09:23:00,11.0,9.0,-100.00,SSW,192,0.0,12.0,86,9.06,,,-99.99,,2013-01-23 14:23:00,
2013-01-23 09:33:00,11.0,9.0,-100.00,SSW,200,1.0,12.0,86,1.14,,,-99.99,,2013-01-23 14:33:00,
2013-01-23 09:43:00,11.0,9.0,-100.00,SE,125,0.0,12.0,85,1.14,,,-99.99,,2013-01-23 14:43:00,
2013-01-23 09:53:00,10.0,9.0,-100.00,ESE,121,0.0,12.0,86,1.14,,,-99.99,,2013-01-23 14:53:00,
2013-01-23 10:03:00,10.0,9.0,-100.00,SSE,165,0.0,12.0,86,7.36,,,-99.99,,2013-01-23 15:03:00,
2013-01-23 10:13:00,11.0,9.0,-100.00,ESE,107,0.0,12.0,86,1.14,,,-99.99,,2013-01-23 15:13:00,
2013-01-23 10:23:00,11.0,9.0,-100.00,SE,142,1.0,12.0,86,2.83,,,-99.99,,2013-01-23 15:23:00,
2013-01-23 10:33:00,11.0,9.0,-100.00,SSE,163,1.0,12.0,86,7.36,,,-99.99,,2013-01-23 15:33:00,
2013-01-23 10:43:00,11.0,9.0,-100.00,SSE,153,2.0,12.0,86,29.49,,,-99.99,,2013-01-23 15:43:00,
2013-01-23 10:53:00,10.0,9.0,-100.00,SE,146,3.0,12.0,86,21.54,,,-99.99,,2013-01-23 15:53:00,
2013-01-23 11:03:00,11.0,9.0,-100.00,SSE,149,2.0,12.0,86,9.06,,,-99.99,,2013-01-23 16:03:00,
2013-01-23 11:12:00,11.0,9.0,-100.00,SSE,153,2.0,12.0,86,10.79,,,-99.99,,2013-01-23 16:12:00,
2013-01-23 11:23:00,10.0,9.0,-100.00,SSE,155,2.0,12.0,86,9.06,,,-99.99,,2013-01-23 16:23:00,
2013-01-23 11:33:00,11.0,9.0,-100.00,SE,134,4.0,12.0,86,10.79,,,-99.99,,2013-01-23 16:33:00,
2013-01-23 11:43:00,11.0,9.0,-100.00,SSE,163,4.0,12.0,86,2.83,,,-99.99,,2013-01-23 16:43:00,
2013-01-23 11:52:00,11.0,9.0,-100.00,SSE,159,4.0,12.0,86,17.01,,,-99.99,,2013-01-23 16:52:00,
2013-01-23 12:03:00,11.0,9.0,-100.00,SSE,168,4.0,12.0,86,1.14,,,-99.99,,2013-01-23 17:03:00,
2013-01-23 12:12:00,11.0,9.0,-100.00,South,173,6.0,12.0,86,2.83,,,-99.99,,2013-01-23 17:12:00,
2013-01-23 12:23:00,12.0,9.0,-100.00,SSE,159,4.0,12.0,86,4.53,,,-99.99,,2013-01-23 17:23:00,
2013-01-23 12:33:00,12.0,9.0,-100.00,SSE,162,4.0,12.0,86,6.22,,,-99.99,,2013-01-23 17:33:00,
2013-01-23 12:43:00,12.0,9.0,-100.00,South,180,4.0,12.0,86,2.83,,,-99.99,,2013-01-23 17:43:00,
2013-01-23 12:53:00,12.0,10.0,-100.00,SSE,149,4.0,12.0,86,1.14,,,-99.99,,2013-01-23 17:53:00,
2013-01-23 13:03:00,12.0,10.0,-100.00,South,187,3.0,12.0,86,4.53,,,-99.99,,2013-01-23 18:03:00,
2013-01-23 13:12:00,12.0,10.0,-100.00,South,184,2.0,12.0,86,4.53,,,-99.99,,2013-01-23 18:12:00,
2013-01-23 13:24:00,12.0,10.0,-100.00,South,183,2.0,12.0,86,14.17,,,-99.99,,2013-01-23 18:24:00,
2013-01-23 13:33:00,13.0,10.0,-100.00,South,184,2.0,12.0,88,9.06,,,-99.99,,2013-01-23 18:33:00,
2013-01-23 13:43:00,12.0,10.0,-100.00,SSE,153,2.0,12.0,86,18.70,,,-99.99,,2013-01-23 18:43:00,
2013-01-23 13:53:00,13.0,10.0,-100.00,South,176,2.0,12.0,86,9.06,,,-99.99,,2013-01-23 18:53:00,
2013-01-23 14:03:00,12.0,10.0,-100.00,South,184,2.0,12.0,88,14.17,,,-99.99,,2013-01-23 19:03:00,
2013-01-23 14:13:00,13.0,10.0,-100.00,South,183,1.0,12.0,88,-99.99,,,-99.99,,2013-01-23 19:13:00,
2013-01-23 14:23:00,13.0,12.0,-100.00,South,175,2.0,12.0,88,31.18,,,-99.99,,2013-01-23 19:23:00,
2013-01-23 14:33:00,12.0,10.0,-100.00,SSE,162,2.0,12.0,88,-99.99,,,-99.99,,2013-01-23 19:33:00,
2013-01-23 14:43:00,13.0,10.0,-100.00,South,176,1.0,12.0,88,-99.99,,,-99.99,,2013-01-23 19:43:00,
2013-01-23 14:53:00,13.0,12.0,-100.00,SSW,192,0.0,12.0,88,24.96,,,-99.99,,2013-01-23 19:53:00,
2013-01-23 15:03:00,13.0,12.0,-100.00,SSE,162,0.0,12.0,89,29.49,,,-99.99,,2013-01-23 20:03:00,
2013-01-23 15:13:00,14.0,12.0,-100.00,South,182,0.0,12.0,89,4.53,,,-99.99,,2013-01-23 20:13:00,
2013-01-23 15:23:00,14.0,12.0,-100.00,South,189,2.0,12.0,88,0.00,,,-99.99,,2013-01-23 20:23:00,
2013-01-23 15:33:00,14.0,12.0,-100.00,SSE,168,3.0,12.0,88,1.14,,,-99.99,,2013-01-23 20:33:00,
2013-01-23 15:43:00,14.0,12.0,-100.00,South,183,1.0,12.0,88,0.00,,,-99.99,,2013-01-23 20:43:00,
2013-01-23 15:53:00,15.0,12.0,-100.00,SSE,148,2.0,12.0,86,0.00,,,-99.99,,2013-01-23 20:53:00,
2013-01-23 16:03:00,14.0,12.0,-100.00,South,172,4.0,12.0,86,0.00,,,-99.99,,2013-01-23 21:03:00,
2013-01-23 16:12:00,14.0,12.0,-100.00,ESE,118,2.0,12.0,86,0.00,,,-99.99,,2013-01-23 21:12:00,
2013-01-23 16:23:00,14.0,10.0,-100.00,South,170,3.0,12.0,86,2.83,,,-99.99,,2013-01-23 21:23:00,
2013-01-23 16:33:00,14.0,12.0,-100.00,South,169,4.0,12.0,86,0.00,,,-99.99,,2013-01-23 21:33:00,
2013-01-23 16:43:00,14.0,12.0,-100.00,SE,138,2.0,12.0,85,0.00,,,-99.99,,2013-01-23 21:43:00,
2013-01-23 16:53:00,14.0,10.0,-100.00,SE,145,2.0,12.0,84,0.00,,,-99.99,,2013-01-23 21:53:00,
2013-01-23 17:02:00,14.0,9.0,-100.00,SE,127,2.0,12.0,75,0.00,,,-99.99,,2013-01-23 22:02:00,
2013-01-23 17:03:00,14.0,10.0,-100.00,SSE,148,2.0,12.0,81,0.00,,,-99.99,,2013-01-23 22:03:00,
2013-01-23 17:13:00,14.0,10.0,-100.00,SSE,148,2.0,12.0,78,0.00,,,-99.99,,2013-01-23 22:13:00,
2013-01-23 17:23:00,14.0,9.0,-100.00,SSE,156,3.0,12.0,76,0.00,,,-99.99,,2013-01-23 22:23:00,
2013-01-23 17:33:00,14.0,9.0,-100.00,SE,127,2.0,12.0,75,0.00,,,-99.99,,2013-01-23 22:33:00,
2013-01-23 17:43:00,14.0,9.0,-100.00,SE,127,2.0,12.0,75,0.00,,,-99.99,,2013-01-23 22:43:00,
2013-01-23 17:53:00,14.0,9.0,-100.00,SE,127,2.0,12.0,75,0.00,,,-99.99,,2013-01-23 22:53:00,
2013-01-23 22:03:00,11.0,7.0,-100.00,ENE,70,4.0,-999.0,81,0.00,,,-99.99,,2013-01-24 03:03:00,
2013-01-23 22:12:00,12.0,9.0,-100.00,East,84,1.0,-999.0,82,0.00,,,-99.99,,2013-01-24 03:12:00,
2013-01-23 22:22:00,11.0,9.0,-100.00,SE,142,0.0,-999.0,82,0.00,,,-99.99,,2013-01-24 03:22:00,
2013-01-23 22:33:00,11.0,9.0,-100.00,ESE,103,1.0,-999.0,84,0.00,,,-99.99,,2013-01-24 03:33:00,
2013-01-23 22:43:00,11.0,9.0,-100.00,ESE,103,1.0,-999.0,84,0.00,,,-99.99,,2013-01-24 03:43:00,
2013-01-23 22:52:00,11.0,9.0,-100.00,ESE,121,0.0,-999.0,84,0.00,,,-99.99,,2013-01-24 03:52:00,
2013-01-23 23:03:00,11.0,9.0,-100.00,SE,125,0.0,-999.0,84,0.00,,,-99.99,,2013-01-24 04:03:00,
2013-01-23 23:12:00,11.0,9.0,-100.00,SE,125,0.0,-999.0,84,0.00,,,-99.99,,2013-01-24 04:12:00,
2013-01-23 23:22:00,12.0,9.0,-100.00,SE,127,0.0,-999.0,84,0.00,,,-99.99,,2013-01-24 04:22:00,
2013-01-23 23:33:00,11.0,9.0,-100.00,East,87,1.0,-999.0,84,0.00,,,-99.99,,2013-01-24 04:33:00,
2013-01-23 23:42:00,11.0,9.0,-100.00,ESE,112,0.0,-999.0,84,0.00,,,-99.99,,2013-01-24 04:42:00,
2013-01-23 23:52:00,11.0,9.0,-100.00,ESE,115,1.0,-999.0,84,0.00,,,-99.99,,2013-01-24 04:52:00,